Fort Morgan, CO

2:55 AM MDT on July 23, 2017 (GMT -0600)
Fort Morgan

Weather History for KFMM - January, 2014

Change the Weather History Date:

Wednesday, January 15, 2014

  Actual Average (KAKO) Record (KAKO)
Temperature  
Mean Temperature 35 °F -  
Max Temperature 53 °F 41 °F 65 °F (1995)
Min Temperature 17 °F 15 °F -10 °F (1972)
Degree Days  
Heating Degree Days 30    
Moisture  
Dew Point 18 °F    
Average Humidity 57    
Maximum Humidity 91    
Minimum Humidity 28    
Precipitation  
Precipitation 0.00 in - - ()
Sea Level Pressure  
Sea Level Pressure 30.09 in    
Wind  
Wind Speed 10 mph (West)    
Max Wind Speed 26 mph    
Max Gust Speed 38 mph    
Visibility 10 miles    
Events      
Averages and records for this station are not official NWS values.
T = Trace of Precipitation, MM = Missing Value Source: NWS Daily Summary

Daily Weather History Graph

Daily Weather History Graph

Search for Another Location

Airport or City:

Trip Planner

Search our weather history database for the weather conditions in past years. The results will help you decide how hot, cold, wet, or windy it might be!

Date:

Astronomy

Jan. 15, 2014 Rise Set
Actual Time 7:16 AM MST 4:53 PM MST
Civil Twilight 6:46 AM MST 5:23 PM MST
Nautical Twilight 6:12 AM MST 5:57 PM MST
Astronomical Twilight 5:39 AM MST 6:29 PM MST
Moon 4:53 PM MST (1/15) 6:33 AM MST (1/15)
Length of Visible Light 10h 37m
Length of Day
9h 37m
Full, 100% of the Moon is Illuminated
Jan 15
Full
Jan 15
Full
Jan 23
Last Quarter
Jan 30
New
Feb 6
First Quarter

Hourly Weather History & Observations

Time (MST) Temp. Windchill Dew Point Humidity Pressure Visibility Wind Dir Wind Speed Gust Speed Precip Events Conditions
12:15 AM 23.2 °F 15.0 °F 18.5 °F 82% 30.27 in 10.0 mi West 6.9 mph - N/A   Clear
12:35 AM 22.5 °F 12.4 °F 18.5 °F 85% 30.26 in 10.0 mi West 9.2 mph - N/A   Clear
12:55 AM 23.9 °F 13.5 °F 18.5 °F 80% 30.25 in 10.0 mi WNW 10.4 mph - N/A   Clear
1:15 AM 23.9 °F 13.5 °F 17.8 °F 77% 30.24 in 10.0 mi WNW 10.4 mph - N/A   Clear
1:35 AM 24.6 °F 15.1 °F 17.4 °F 74% 30.23 in 10.0 mi WNW 9.2 mph - N/A   Clear
1:55 AM 23.5 °F 14.5 °F 16.9 °F 76% 30.23 in 10.0 mi West 8.1 mph - N/A   Clear
2:15 AM 20.7 °F 14.2 °F 15.6 °F 81% 30.22 in 10.0 mi WSW 4.6 mph - N/A   Clear
2:35 AM 19.4 °F 10.4 °F 15.4 °F 85% 30.22 in 10.0 mi WSW 6.9 mph - N/A   Clear
2:55 AM 18.7 °F 7.8 °F 15.3 °F 87% 30.22 in 10.0 mi West 9.2 mph - N/A   Clear
3:15 AM 18.9 °F 8.8 °F 16.2 °F 89% 30.20 in 10.0 mi WNW 8.1 mph - N/A   Clear
3:35 AM 19.0 °F 8.2 °F 15.8 °F 87% 30.20 in 10.0 mi West 9.2 mph - N/A   Clear
3:55 AM 17.8 °F 8.5 °F 14.9 °F 88% 30.19 in 10.0 mi West 6.9 mph - N/A   Clear
4:15 AM 17.8 °F 6.6 °F 15.4 °F 91% 30.18 in 10.0 mi West 9.2 mph - N/A   Clear
4:35 AM 18.0 °F 7.7 °F 15.4 °F 90% 30.17 in 10.0 mi West 8.1 mph - N/A   Clear
4:55 AM 18.9 °F 5.9 °F 16.3 °F 90% 30.17 in 10.0 mi West 12.7 mph - N/A   Scattered Clouds
5:15 AM 19.8 °F 8.3 °F 15.8 °F 85% 30.17 in 10.0 mi West 10.4 mph - N/A   Clear
5:35 AM 19.4 °F 7.9 °F 15.4 °F 85% 30.17 in 10.0 mi West 10.4 mph - N/A   Clear
5:55 AM 20.3 °F 9.0 °F 15.6 °F 82% 30.17 in 10.0 mi West 10.4 mph - N/A   Clear
6:15 AM 20.1 °F 9.5 °F 15.4 °F 82% 30.17 in 10.0 mi West 9.2 mph - N/A   Clear
6:35 AM 20.5 °F 12.8 °F 15.6 °F 81% 30.15 in 10.0 mi West 5.8 mph - N/A   Clear
6:55 AM 20.7 °F 11.0 °F 15.6 °F 81% 30.13 in 10.0 mi WSW 8.1 mph - N/A   Clear
7:15 AM 20.8 °F 14.4 °F 15.4 °F 80% 30.13 in 10.0 mi WSW 4.6 mph - N/A   Clear
7:35 AM 20.3 °F 11.5 °F 15.8 °F 83% 30.13 in 10.0 mi WSW 6.9 mph - N/A   Clear
7:55 AM 20.3 °F 9.0 °F 15.8 °F 83% 30.11 in 10.0 mi WSW 10.4 mph - N/A   Clear
8:15 AM 20.3 °F 7.7 °F 16.3 °F 85% 30.11 in 10.0 mi West 12.7 mph - N/A   Clear
8:35 AM 22.5 °F 11.1 °F 17.8 °F 82% 30.12 in 10.0 mi West 11.5 mph - N/A   Clear
8:55 AM 25.7 °F 15.1 °F 18.9 °F 75% 30.11 in 10.0 mi West 11.5 mph - N/A   Clear
9:15 AM 26.4 °F 15.5 °F 19.4 °F 75% 30.11 in 10.0 mi West 12.7 mph - N/A   Clear
9:35 AM 26.6 °F 16.2 °F 20.1 °F 77% 30.10 in 10.0 mi West 11.5 mph - N/A   Clear
9:55 AM 29.1 °F 18.9 °F 20.1 °F 69% 30.11 in 10.0 mi West 12.7 mph - N/A   Clear
10:15 AM 29.5 °F 19.9 °F 20.3 °F 69% 30.11 in 10.0 mi West 11.5 mph - N/A   Clear
10:35 AM 31.8 °F 24.6 °F 21.0 °F 64% 30.10 in 10.0 mi West 8.1 mph - N/A   Clear
10:55 AM 35.2 °F 27.1 °F 20.5 °F 55% 30.09 in 10.0 mi West 11.5 mph - N/A   Clear
11:15 AM 36.5 °F 29.2 °F 20.1 °F 52% 30.09 in 10.0 mi West 10.4 mph - N/A   Clear
11:35 AM 38.5 °F 30.7 °F 20.1 °F 48% 30.08 in 10.0 mi West 12.7 mph 19.6 mph N/A   Scattered Clouds
11:55 AM 40.5 °F 35.1 °F 20.8 °F 46% 30.06 in 10.0 mi West 8.1 mph 18.4 mph N/A   Clear
12:15 PM 40.3 °F 33.4 °F 21.0 °F 46% 30.04 in 10.0 mi WSW 11.5 mph - N/A   Clear
12:35 PM 41.5 °F 37.1 °F 21.2 °F 44% 30.03 in 10.0 mi WSW 6.9 mph - N/A   Clear
12:55 PM 44.4 °F 40.0 °F 21.0 °F 39% 30.02 in 10.0 mi WSW 8.1 mph - N/A   Clear
1:15 PM 45.3 °F 42.3 °F 21.9 °F 40% 30.00 in 10.0 mi WSW 5.8 mph - N/A   Clear
1:35 PM 46.6 °F - 21.7 °F 37% 29.99 in 10.0 mi WSW 6.9 mph - N/A   Clear
1:55 PM 46.0 °F 41.4 °F 22.1 °F 39% 29.97 in 10.0 mi SW 9.2 mph - N/A   Clear
2:15 PM 46.9 °F - 21.9 °F 37% 29.98 in 10.0 mi SW 9.2 mph - N/A   Clear
2:35 PM 49.3 °F - 22.5 °F 35% 29.99 in 10.0 mi WSW 9.2 mph - N/A   Clear
2:55 PM 51.3 °F - 21.7 °F 31% 29.99 in 10.0 mi West 6.9 mph - N/A   Clear
3:15 PM 52.7 °F - 22.5 °F 31% 29.99 in 10.0 mi West 9.2 mph - N/A   Clear
3:35 PM 53.6 °F - 22.1 °F 29% 29.99 in 10.0 mi West 5.8 mph - N/A   Clear
3:55 PM 53.6 °F - 21.7 °F 29% 29.99 in 10.0 mi WNW 5.8 mph - N/A   Clear
4:15 PM 49.1 °F - 21.6 °F 34% 30.00 in 10.0 mi NW 5.8 mph - N/A   Clear
4:35 PM 46.6 °F - 20.7 °F 36% 30.00 in 10.0 mi WNW 5.8 mph - N/A   Clear
4:55 PM 41.9 °F 35.9 °F 20.7 °F 43% 30.00 in 10.0 mi NW 10.4 mph - N/A   Clear
5:15 PM 44.1 °F 37.1 °F 20.5 °F 39% 30.00 in 10.0 mi NW 15.0 mph 20.7 mph N/A   Clear
5:35 PM 45.9 °F 39.7 °F 18.3 °F 33% 30.01 in 10.0 mi NW 13.8 mph - N/A   Clear
5:55 PM 45.0 °F 38.2 °F 16.3 °F 32% 30.00 in 10.0 mi NNW 15.0 mph - N/A   Clear
6:15 PM 43.9 °F 36.5 °F 16.3 °F 33% 30.00 in 10.0 mi North 16.1 mph - N/A   Clear
6:35 PM 42.8 °F 35.8 °F 16.3 °F 34% 30.00 in 10.0 mi NNW 13.8 mph 20.7 mph N/A   Clear
6:55 PM 42.4 °F 34.7 °F 16.7 °F 35% 30.01 in 10.0 mi NNW 16.1 mph 23.0 mph N/A   Clear
7:15 PM 45.9 °F 38.0 °F 14.5 °F 28% 30.01 in 10.0 mi NW 20.7 mph - N/A   Clear
7:35 PM 44.8 °F 37.4 °F 13.6 °F 28% 30.01 in 10.0 mi NW 17.3 mph - N/A   Clear
7:55 PM 43.5 °F 36.1 °F 13.5 °F 30% 30.02 in 10.0 mi WNW 16.1 mph - N/A   Clear
8:15 PM 41.9 °F 34.6 °F 13.1 °F 31% 30.02 in 10.0 mi WNW 13.8 mph - N/A   Clear
8:35 PM 39.7 °F 33.2 °F 13.1 °F 34% 30.02 in 10.0 mi WNW 10.4 mph - N/A   Clear
8:55 PM 36.1 °F 29.3 °F 14.2 °F 41% 30.03 in 10.0 mi WNW 9.2 mph - N/A   Clear
9:15 PM 34.7 °F 27.5 °F 14.5 °F 44% 30.04 in 10.0 mi WNW 9.2 mph - N/A   Clear
9:35 PM 35.8 °F 28.8 °F 14.4 °F 42% 30.04 in 10.0 mi West 9.2 mph - N/A   Clear
9:55 PM 33.1 °F 26.1 °F 14.9 °F 47% 30.04 in 10.0 mi West 8.1 mph - N/A   Clear
10:15 PM 35.6 °F 29.9 °F 14.7 °F 42% 30.04 in 10.0 mi WNW 6.9 mph - N/A   Clear
10:35 PM 38.1 °F 32.3 °F 13.6 °F 37% 30.03 in 10.0 mi West 8.1 mph - N/A   Clear
10:55 PM 37.4 °F 31.4 °F 14.0 °F 38% 30.03 in 10.0 mi WNW 8.1 mph - N/A   Clear
11:15 PM 42.1 °F 32.1 °F 14.2 °F 32% 30.02 in 10.0 mi NW 25.3 mph 34.5 mph N/A   Clear
11:35 PM 42.3 °F 32.2 °F 13.8 °F 32% 30.03 in 10.0 mi NW 26.5 mph 38.0 mph N/A   Clear
11:55 PM 41.5 °F 31.2 °F 13.6 °F 32% 30.03 in 10.0 mi NW 26.5 mph 38.0 mph N/A   Clear